カタログに戻る

COSMOS 1247 DEB

LostHEO
NORAD 28269·DEBRIS·🇷🇺 Russia

打ち上げ Feb 19, 1981 から Plesetsk Cosmodrome

Loading…

次のパス (今後24時間)

TLE

古いSource: Space-Track

元期: Feb 12, 2023, 03:43 UTC

1 28269U 81016K   23043.15539108 -.00000385  00000-0  00000+0 0  9993
2 28269  66.7323  92.1460 6612039  13.2553   3.1516  2.01206578149971

AllMySatでCOSMOS 1247 DEBをリアルタイム追跡

Download on the App Store